Brooksville, FL

7:28 PM EDT on March 29, 2017 (GMT -0400)
Hernando County

Weather History for KBKV - December, 2013

Change the Weather History Date:

Friday, December 6, 2013

  Actual Average Record
Temperature  
Mean Temperature 72 °F -  
Max Temperature 84 °F 71 °F 84 °F (2013)
Min Temperature 59 °F 47 °F 27 °F (2000)
Cooling Degree Days 6    
Growing Degree Days 22 (Base 50)    
Moisture  
Dew Point 64 °F    
Average Humidity 90    
Maximum Humidity 100    
Minimum Humidity 56    
Precipitation  
Precipitation 0.00 in - - ()
Sea Level Pressure  
Sea Level Pressure 30.15 in    
Wind  
Wind Speed 3 mph (SSE)    
Max Wind Speed 17 mph    
Max Gust Speed 21 mph    
Visibility 6 miles    
Events Fog    
Averages and records for this station are not official NWS values.
T = Trace of Precipitation, MM = Missing Value Source: NWS Daily Summary

Daily Weather History Graph

Daily Weather History Graph

Search for Another Location

Airport or City:

Trip Planner

Search our weather history database for the weather conditions in past years. The results will help you decide how hot, cold, wet, or windy it might be!

Date:

Astronomy

Dec. 06, 2013 Rise Set
Actual Time 7:08 AM EST 5:33 PM EST
Civil Twilight 6:43 AM EST 5:58 PM EST
Nautical Twilight 6:13 AM EST 6:28 PM EST
Astronomical Twilight 5:45 AM EST 6:56 PM EST
Moon 10:24 AM EST (12/6) 9:50 PM EST (12/6)
Length of Visible Light 11h 15m
Length of Day
10h 24m
Waxing Crescent, 19% of the Moon is Illuminated
Dec 6
Waxing Crescent
Dec 9
First Quarter
Dec 17
Full
Dec 25
Last Quarter
Jan 1
New

Hourly Weather History & Observations

Time (EST) Temp. Heat Index Dew Point Humidity Pressure Visibility Wind Dir Wind Speed Gust Speed Precip Events Conditions
12:53 AM 62.1 °F - 62.1 °F 100% 30.13 in 10.0 mi ESE 3.5 mph - N/A   Clear
1:53 AM 66.0 °F - 66.0 °F 100% 30.13 in 10.0 mi ESE 4.6 mph - N/A   Clear
2:53 AM 66.0 °F - 66.0 °F 100% 30.13 in 10.0 mi ESE 3.5 mph - N/A   Clear
3:05 AM 64.0 °F - 64.0 °F 100% 30.13 in 1.8 mi Calm Calm - N/A   Clear
3:11 AM 63.0 °F - 63.0 °F 100% 30.13 in 0.8 mi Calm Calm - N/A   Clear
3:22 AM 62.1 °F - 62.1 °F 100% 30.14 in 0.5 mi Calm Calm - N/A Fog Fog
3:53 AM 62.1 °F - 62.1 °F 100% 30.14 in 0.5 mi Calm Calm - N/A Fog Fog
4:41 AM 62.1 °F - 62.1 °F 100% 30.14 in 0.5 mi Calm Calm - N/A Fog Fog
4:53 AM 64.0 °F - 64.0 °F 100% 30.14 in 1.0 mi Calm Calm - N/A   Mist
4:57 AM 64.0 °F - 64.0 °F 100% 30.14 in 0.5 mi Calm Calm - N/A Fog Fog
5:17 AM 59.0 °F - 59.0 °F 100% 30.15 in 0.2 mi Calm Calm - N/A Fog Fog
5:53 AM 60.1 °F - 60.1 °F 100% 30.15 in 0.2 mi Calm Calm - N/A Fog Fog
6:33 AM 59.0 °F - 59.0 °F 100% 30.16 in 0.5 mi Calm Calm - N/A Fog Fog
6:39 AM 59.0 °F - 59.0 °F 100% 30.16 in 1.2 mi Calm Calm - N/A   Scattered Clouds
6:42 AM 59.0 °F - 59.0 °F 100% 30.16 in 2.0 mi Calm Calm - N/A   Scattered Clouds
6:50 AM 60.8 °F - 60.8 °F 100% 30.16 in 4.0 mi Calm Calm - N/A   Partly Cloudy
6:53 AM 60.1 °F - 60.1 °F 100% 30.16 in 5.0 mi Calm Calm - N/A   Partly Cloudy
7:05 AM 59.0 °F - 59.0 °F 100% 30.17 in 1.5 mi Calm Calm - N/A   Clear
7:10 AM 59.0 °F - 59.0 °F 100% 30.17 in 0.5 mi Calm Calm - N/A Fog Fog
7:24 AM 59.0 °F - 59.0 °F 100% 30.17 in 0.2 mi Calm Calm - N/A Fog Fog
7:44 AM 61.0 °F - 61.0 °F 100% 30.17 in 1.2 mi ESE 4.6 mph - N/A   Scattered Clouds
7:48 AM 60.8 °F - 60.8 °F 100% 30.17 in 3.0 mi ESE 4.6 mph - N/A   Scattered Clouds
7:53 AM 62.1 °F - 62.1 °F 100% 30.17 in 5.0 mi ESE 4.6 mph - N/A   Partly Cloudy
8:53 AM 71.1 °F - 69.1 °F 93% 30.17 in 10.0 mi SSE 9.2 mph - N/A   Clear
9:53 AM 75.9 °F - 70.0 °F 82% 30.17 in 10.0 mi SSE 11.5 mph - N/A   Clear
10:53 AM 80.1 °F 82.9 °F 69.1 °F 69% 30.18 in 10.0 mi SSE 15.0 mph - N/A   Scattered Clouds
11:09 AM 79.0 °F - 69.1 °F 72% 30.18 in 9.0 mi South 12.7 mph - N/A   Mostly Cloudy
11:28 AM 81.0 °F 83.8 °F 68.0 °F 65% 30.16 in 10.0 mi South 17.3 mph - N/A   Scattered Clouds
11:53 AM 82.0 °F 84.9 °F 68.0 °F 62% 30.15 in 10.0 mi South 15.0 mph 20.7 mph N/A   Partly Cloudy
12:53 PM 82.0 °F 84.5 °F 66.9 °F 60% 30.13 in 10.0 mi SSE 11.5 mph - N/A   Scattered Clouds
1:53 PM 82.9 °F 85.0 °F 66.0 °F 56% 30.11 in 10.0 mi South 12.7 mph 19.6 mph N/A   Partly Cloudy
2:53 PM 84.0 °F 86.5 °F 66.9 °F 56% 30.11 in 10.0 mi South 8.1 mph - N/A   Partly Cloudy
3:53 PM 82.9 °F 85.4 °F 66.9 °F 58% 30.11 in 10.0 mi SSE 5.8 mph - N/A   Clear
4:53 PM 81.0 °F 83.3 °F 66.9 °F 62% 30.12 in 10.0 mi WSW 5.8 mph - N/A   Partly Cloudy
5:53 PM 73.9 °F - 68.0 °F 82% 30.14 in 10.0 mi NW 3.5 mph - N/A   Clear
6:53 PM 72.0 °F - 66.9 °F 84% 30.16 in 10.0 mi Calm Calm - N/A   Partly Cloudy
7:53 PM 70.0 °F - 68.0 °F 93% 30.17 in 10.0 mi Calm Calm - N/A   Scattered Clouds
8:53 PM 66.9 °F - 66.0 °F 97% 30.17 in 9.0 mi Calm Calm - N/A   Clear
9:53 PM 66.9 °F - 66.0 °F 97% 30.18 in 10.0 mi Calm Calm - N/A   Mostly Cloudy
10:53 PM 66.9 °F - 66.0 °F 97% 30.20 in 10.0 mi Calm Calm - N/A   Scattered Clouds
11:53 PM 64.9 °F - 64.9 °F 100% 30.19 in 10.0 mi SE 3.5 mph - N/A   Scattered Clouds